| time (UTC) | temp F | wind direction | speed knots | gust knots | rain 1hr in | rain 24hr in | rain mn in | humidity % | barometer mb |
| 20260906225325 | 86 | 212 | 2.6 | 12.2 | 0.00 | 0.00 | 0.00 | 23 | 1004.8 |
| 20260906224315 | 87 | 355 | 0.0 | 6.1 | 0.00 | 0.00 | 0.00 | 24 | 1004.7 |
| 20260906222222 | 86 | 291 | 0.0 | 6.1 | 0.00 | 0.00 | 0.00 | 24 | 1004.8 |
| 20260906221246 | 86 | 312 | 1.7 | 7.0 | 0.00 | 0.00 | 0.00 | 24 | 1004.8 |
| 20260906220259 | 86 | 356 | 0.9 | 8.7 | 0.00 | 0.00 | 0.00 | 23 | 1004.9 |
| 20260906215227 | 87 | 103 | 1.7 | 8.7 | 0.00 | 0.00 | 0.00 | 24 | 1005.1 |
| 20260906214239 | 87 | 358 | 0.9 | 6.1 | 0.00 | 0.00 | 0.00 | 24 | 1005.0 |
| 20260906212109 | 86 | 210 | 0.9 | 3.5 | 0.00 | 0.00 | 0.00 | 24 | 1005.6 |
| 20260906211118 | 84 | 307 | 1.7 | 7.0 | 0.00 | 0.00 | 0.00 | 24 | 1005.8 |
| 20260906203937 | 84 | 30 | 1.7 | 7.8 | 0.00 | 0.00 | 0.00 | 26 | 1006.1 |
| 20260906201835 | 84 | 349 | 2.6 | 8.7 | 0.00 | 0.00 | 0.00 | 25 | 1006.3 |
| 20260906200812 | 84 | 20 | 2.6 | 8.7 | 0.00 | 0.00 | 0.00 | 24 | 1006.5 |
| 20260906195816 | 84 | 330 | 1.7 | 7.8 | 0.00 | 0.00 | 0.00 | 24 | 1006.7 |
| 20260906194802 | 85 | 333 | 2.6 | 7.8 | 0.00 | 0.00 | 0.00 | 24 | 1006.7 |
| 20260906193804 | 87 | 12 | 0.9 | 5.2 | 0.00 | 0.00 | 0.00 | 21 | 1006.8 |
| 20260906192739 | 85 | 119 | 0.9 | 0.0 | 0.00 | 0.00 | 0.00 | 21 | 1006.9 |
| 20260906191803 | 85 | 47 | 0.9 | 7.8 | 0.00 | 0.00 | 0.00 | 22 | 1007.1 |
| 20260906190826 | 85 | 335 | 0.9 | 7.8 | 0.00 | 0.00 | 0.00 | 23 | 1007.2 |
| 20260906185842 | 85 | 9 | 0.0 | 5.2 | 0.00 | 0.00 | 0.00 | 22 | 1007.4 |
| 20260906184819 | 84 | 268 | 0.9 | 3.5 | 0.00 | 0.00 | 0.00 | 22 | 1007.6 |
| 20260906183831 | 84 | 20 | 0.0 | 0.9 | 0.00 | 0.00 | 0.00 | 24 | 1007.9 |
| 20260906182804 | 82 | 353 | 0.9 | 4.3 | 0.00 | 0.00 | 0.00 | 26 | 1008.2 |
| 20260906181830 | 82 | 294 | 0.0 | 4.3 | 0.00 | 0.00 | 0.00 | 25 | 1008.4 |
| 20260906180823 | 81 | 25 | 0.9 | 4.3 | 0.00 | 0.00 | 0.00 | 30 | 1008.6 |
| 20260906175758 | 80 | 352 | 0.0 | 2.6 | 0.00 | 0.00 | 0.00 | 30 | 1009.1 |
| 20260906174813 | 79 | 39 | 0.0 | 0.9 | 0.00 | 0.00 | 0.00 | 34 | 1009.2 |
| 20260906173819 | 79 | 122 | 0.0 | 0.0 | 0.00 | 0.00 | 0.00 | 35 | 1009.5 |
| 20260906172814 | 78 | 349 | 0.0 | 1.7 | 0.00 | 0.00 | 0.00 | 34 | 1009.9 |
| 20260906171814 | 76 | 122 | 0.0 | 0.0 | 0.00 | 0.00 | 0.00 | 35 | 1010.2 |
| 20260906170745 | 74 | 348 | 0.0 | 3.5 | 0.00 | 0.00 | 0.00 | 37 | 1010.4 |
| 20260906165723 | 74 | 296 | 0.0 | 3.5 | 0.00 | 0.00 | 0.00 | 37 | 1010.6 |
| 20260906164741 | 73 | 6 | 0.0 | 2.6 | 0.00 | 0.00 | 0.00 | 40 | 1010.8 |
| 20260906162551 | 71 | 158 | 0.0 | 0.0 | 0.00 | 0.00 | 0.00 | 44 | 1011.2 |
| 20260906161523 | 69 | 263 | 0.0 | 0.0 | 0.00 | 0.00 | 0.00 | 44 | 1011.5 |
| 20260906160459 | 68 | 281 | 0.0 | 0.0 | 0.00 | 0.00 | 0.00 | 45 | 1011.7 |
| 20260906155501 | 66 | 13 | 0.0 | 2.6 | 0.00 | 0.00 | 0.00 | 49 | 1011.8 |
| 20260906154450 | 64 | 357 | 0.0 | 0.0 | 0.00 | 0.00 | 0.00 | 52 | 1011.9 |
| 20260906153506 | 64 | 328 | 0.0 | 0.9 | 0.00 | 0.00 | 0.00 | 52 | 1012.1 |
| 20260906152440 | 64 | 106 | 0.0 | 0.0 | 0.00 | 0.00 | 0.00 | 52 | 1012.1 |
| 20260906151425 | 62 | 9 | 0.0 | 0.0 | 0.00 | 0.00 | 0.00 | 59 | 1012.4 |
| 20260906145301 | 62 | 358 | 0.0 | 0.9 | 0.00 | 0.00 | 0.00 | 59 | 1012.5 |
| 20260906144243 | 59 | 117 | 0.0 | 0.0 | 0.00 | 0.00 | 0.00 | 67 | 1012.6 |
| 20260906143233 | 57 | 117 | 0.0 | 0.9 | 0.00 | 0.00 | 0.00 | 72 | 1012.8 |
| 20260906142233 | 54 | 123 | 0.0 | 0.0 | 0.00 | 0.00 | 0.00 | 82 | 1012.9 |
| 20260906141216 | 51 | 123 | 0.0 | 0.0 | 0.00 | 0.00 | 0.00 | 86 | 1012.9 |
| 20260906140221 | 50 | 122 | 0.0 | 0.0 | 0.00 | 0.00 | 0.00 | 86 | 1013.0 |
| 20260906135240 | 49 | 145 | 0.0 | 0.0 | 0.00 | 0.00 | 0.00 | 89 | 1013.0 |
| 20260906134205 | 49 | 146 | 0.0 | 0.0 | 0.00 | 0.00 | 0.00 | 90 | 1012.9 |
| 20260906133213 | 48 | 145 | 0.0 | 0.0 | 0.00 | 0.00 | 0.00 | 90 | 1012.7 |
| 20260906131015 | 48 | 146 | 0.0 | 0.0 | 0.00 | 0.00 | 0.00 | 90 | 1012.5 |
| 20260906125953 | 48 | 145 | 0.0 | 0.0 | 0.00 | 0.00 | 0.00 | 89 | 1012.3 |
| 20260906123841 | 48 | 145 | 0.0 | 0.0 | 0.00 | 0.00 | 0.00 | 89 | 1012.3 |
| 20260906122815 | 48 | 145 | 0.0 | 0.0 | 0.00 | 0.00 | 0.00 | 89 | 1012.0 |
| 20260906121835 | 49 | 146 | 0.0 | 0.0 | 0.00 | 0.00 | 0.00 | 88 | 1012.0 |
| 20260906120856 | 49 | 146 | 0.0 | 0.0 | 0.00 | 0.00 | 0.00 | 88 | 1012.0 |
| 20260906114658 | 49 | 146 | 0.0 | 0.0 | 0.00 | 0.00 | 0.00 | 87 | 1012.0 |
| 20260906112453 | 49 | 146 | 0.0 | 0.0 | 0.00 | 0.00 | 0.00 | 86 | 1011.9 |
| 20260906110328 | 50 | 145 | 0.0 | 0.0 | 0.00 | 0.00 | 0.00 | 85 | 1011.9 |
| 20260906105316 | 50 | 146 | 0.0 | 0.0 | 0.00 | 0.00 | 0.00 | 86 | 1011.8 |
| 20260906104255 | 49 | 146 | 0.0 | 0.0 | 0.00 | 0.00 | 0.00 | 86 | 1011.6 |
| 20260906103251 | 49 | 145 | 0.0 | 0.0 | 0.00 | 0.00 | 0.00 | 87 | 1011.6 |
| 20260906102300 | 49 | 145 | 0.0 | 0.0 | 0.00 | 0.00 | 0.00 | 87 | 1011.7 |
| 20260906101255 | 49 | 145 | 0.0 | 0.0 | 0.00 | 0.00 | 0.00 | 87 | 1011.6 |
| 20260906100252 | 49 | 146 | 0.0 | 0.0 | 0.00 | 0.00 | 0.00 | 85 | 1011.6 |
| 20260906094136 | 49 | 146 | 0.0 | 0.0 | 0.00 | 0.00 | 0.00 | 86 | 1011.3 |
| 20260906093140 | 49 | 146 | 0.0 | 0.0 | 0.00 | 0.00 | 0.00 | 85 | 1011.2 |
| 20260906092143 | 50 | 124 | 0.0 | 0.0 | 0.00 | 0.00 | 0.00 | 86 | 1011.1 |
| 20260906091207 | 50 | 124 | 0.0 | 0.0 | 0.00 | 0.00 | 0.00 | 84 | 1011.0 |
| 20260906090728 | 50 | 124 | 0.0 | 0.0 | 0.00 | 0.00 | 0.00 | 84 | 1010.8 |
| 20260906085715 | 50 | 124 | 0.0 | 0.0 | 0.00 | 0.00 | 0.00 | 84 | 1010.8 |
| 20260906084704 | 50 | 146 | 0.0 | 0.0 | 0.00 | 0.00 | 0.00 | 85 | 1010.6 |
| 20260906083640 | 51 | 146 | 0.0 | 0.0 | 0.00 | 0.00 | 0.00 | 81 | 1010.6 |
| 20260906082639 | 51 | 146 | 0.0 | 0.0 | 0.00 | 0.00 | 0.00 | 83 | 1010.6 |
| 20260906081637 | 52 | 148 | 0.0 | 0.0 | 0.00 | 0.00 | 0.00 | 82 | 1010.5 |
| 20260906080615 | 52 | 129 | 0.0 | 0.0 | 0.00 | 0.00 | 0.00 | 83 | 1010.7 |
| 20260906075601 | 52 | 129 | 0.0 | 0.0 | 0.00 | 0.00 | 0.00 | 83 | 1010.6 |
| 20260906074607 | 53 | 129 | 0.0 | 0.0 | 0.00 | 0.00 | 0.00 | 82 | 1010.5 |
| 20260906072500 | 53 | 130 | 0.0 | 0.0 | 0.00 | 0.00 | 0.00 | 80 | 1010.4 |
| 20260906071454 | 54 | 129 | 0.0 | 0.0 | 0.00 | 0.00 | 0.00 | 79 | 1010.4 |
| 20260906070424 | 54 | 130 | 0.0 | 0.0 | 0.00 | 0.00 | 0.00 | 78 | 1010.4 |
| 20260906065356 | 55 | 130 | 0.0 | 0.0 | 0.00 | 0.00 | 0.00 | 78 | 1010.2 |
| 20260906064404 | 55 | 129 | 0.0 | 0.0 | 0.00 | 0.00 | 0.00 | 77 | 1010.3 |
| 20260906063410 | 55 | 129 | 0.0 | 0.0 | 0.00 | 0.00 | 0.00 | 78 | 1010.3 |
| 20260906062338 | 55 | 129 | 0.0 | 0.0 | 0.00 | 0.00 | 0.00 | 77 | 1010.2 |
| 20260906061308 | 55 | 130 | 0.0 | 0.0 | 0.00 | 0.00 | 0.00 | 77 | 1010.1 |
| 20260906055220 | 55 | 129 | 0.0 | 0.0 | 0.00 | 0.00 | 0.00 | 78 | 1010.0 |
| 20260906053045 | 56 | 129 | 0.0 | 0.0 | 0.00 | 0.00 | 0.00 | 74 | 1009.9 |
| 20260906052042 | 57 | 130 | 0.0 | 0.0 | 0.00 | 0.00 | 0.00 | 72 | 1009.8 |
| 20260906051008 | 57 | 129 | 0.0 | 0.0 | 0.00 | 0.00 | 0.00 | 70 | 1009.7 |
| 20260906045947 | 58 | 130 | 0.0 | 0.0 | 0.00 | 0.00 | 0.00 | 66 | 1009.6 |
| 20260906043819 | 60 | 130 | 0.0 | 0.0 | 0.00 | 0.00 | 0.00 | 62 | 1009.5 |
| 20260906042809 | 61 | 148 | 0.0 | 0.0 | 0.00 | 0.00 | 0.00 | 62 | 1009.4 |
| 20260906040713 | 63 | 148 | 0.0 | 0.0 | 0.00 | 0.00 | 0.00 | 55 | 1009.0 |
| 20260906035657 | 63 | 99 | 0.0 | 0.0 | 0.00 | 0.00 | 0.00 | 57 | 1009.0 |
| 20260906034633 | 64 | 99 | 0.0 | 0.0 | 0.00 | 0.00 | 0.00 | 54 | 1008.8 |
| 20260906033650 | 64 | 130 | 0.0 | 0.0 | 0.00 | 0.00 | 0.00 | 51 | 1008.6 |
| 20260906032630 | 65 | 148 | 0.0 | 0.0 | 0.00 | 0.00 | 0.00 | 53 | 1008.5 |
| 20260906031653 | 65 | 140 | 0.0 | 0.0 | 0.00 | 0.00 | 0.00 | 51 | 1008.5 |
| 20260906025511 | 67 | 140 | 0.0 | 0.0 | 0.00 | 0.00 | 0.00 | 50 | 1007.8 |
| 20260906023337 | 70 | 148 | 0.0 | 0.9 | 0.00 | 0.00 | 0.00 | 43 | 1007.3 |
| 20260906022307 | 71 | 117 | 0.0 | 0.0 | 0.00 | 0.00 | 0.00 | 41 | 1007.1 |
| 20260906021329 | 73 | 54 | 0.0 | 0.0 | 0.00 | 0.00 | 0.00 | 38 | 1006.8 |
| 20260906020341 | 75 | 54 | 0.0 | 0.0 | 0.00 | 0.00 | 0.00 | 33 | 1006.6 |
| 20260906015342 | 75 | 262 | 0.0 | 1.7 | 0.00 | 0.00 | 0.00 | 32 | 1006.4 |
| 20260906014340 | 76 | 240 | 0.0 | 1.7 | 0.00 | 0.00 | 0.00 | 33 | 1006.2 |
| 20260906012209 | 79 | 35 | 0.0 | 6.1 | 0.00 | 0.00 | 0.00 | 30 | 1006.2 |
| 20260906011207 | 80 | 264 | 0.0 | 3.5 | 0.00 | 0.00 | 0.00 | 30 | 1006.1 |
| 20260906010225 | 82 | 339 | 0.0 | 3.5 | 0.00 | 0.00 | 0.00 | 28 | 1006.1 |
| 20260906005214 | 82 | 5 | 0.0 | 4.3 | 0.00 | 0.00 | 0.00 | 27 | 1006.1 |
| 20260906004207 | 83 | 347 | 0.9 | 4.3 | 0.00 | 0.00 | 0.00 | 27 | 1006.2 |
| 20260906003207 | 83 | 342 | 0.9 | 5.2 | 0.00 | 0.00 | 0.00 | 27 | 1006.1 |
| 20260906002212 | 83 | 20 | 0.9 | 10.4 | 0.00 | 0.00 | 0.00 | 27 | 1006.1 |
| 20260906000128 | 82 | 354 | 2.6 | 10.4 | 0.00 | 0.00 | 0.00 | 27 | 1005.9 |
| 20260905235126 | 83 | 12 | 4.3 | 12.2 | 0.00 | 0.00 | 0.00 | 28 | 1005.9 |
| 20260905234100 | 83 | 338 | 4.3 | 12.2 | 0.00 | 0.00 | 0.00 | 27 | 1006.0 |
| 20260905233040 | 84 | 4 | 3.5 | 8.7 | 0.00 | 0.00 | 0.00 | 27 | 1005.8 |
| 20260905232059 | 84 | 357 | 3.5 | 9.6 | 0.00 | 0.00 | 0.00 | 26 | 1005.8 |
| 20260905231049 | 84 | 347 | 2.6 | 10.4 | 0.00 | 0.00 | 0.00 | 26 | 1005.7 |
| 20260905230111 | 84 | 338 | 2.6 | 10.4 | 0.00 | 0.00 | 0.00 | 27 | 1005.7 |